Simultaneous Nadir Overpasses (SNOs) Predictions

Prediction of SNOs between LANDSAT-8 and NPP Satellite Orbit:

Table of predicted SNOs for the next 14.0 days since TLE Epoch: 11/22/2014
Index Date (LANDSAT-8) Time (LANDSAT-8) Lat,Lon (LANDSAT-8) SZA (LANDSAT-8 ) Date (NPP) Time (NPP) Lat,Lon (NPP) SZA (NPP ) Distance(km) Time Diff (sec)
1 11/24/2014 17:28:43 -70.87, 95.39 88.61 11/24/2014 17:28:03 -70.87, 95.33 88.61 2.34 40
2 11/24/2014 18:18:11 70.73, -97.18 91.26 11/24/2014 18:18:47 70.76, -97.19 91.29 3.40 36
3 11/27/2014 08:55:34 71.56, 44.73 92.60 11/27/2014 08:54:26 71.58, 42.55 92.62 76.75 68
4 11/27/2014 09:45:15 -70.84,-148.78 88.13 11/27/2014 09:44:55 -70.81,-148.81 88.16 3.33 20
5 11/27/2014 10:34:43 70.70, 18.64 91.74 11/27/2014 10:35:39 70.70, 18.67 91.75 1.41 56
6 11/30/2014 01:12:19 70.91, 159.55 92.40 11/30/2014 01:11:06 70.91, 159.47 92.40 2.64 73
7 11/30/2014 02:01:49 -70.79, -33.00 87.72 11/30/2014 02:01:48 -70.81, -33.05 87.69 3.21 1
8 11/30/2014 02:51:18 70.59, 134.34 92.09 11/30/2014 02:52:30 70.60, 134.60 92.11 9.68 72
9 12/02/2014 17:28:54 70.89, -84.63 92.79 12/02/2014 17:27:58 70.87, -84.70 92.78 2.92 56
10 12/02/2014 18:18:24 -70.78, 82.84 87.32 12/02/2014 18:18:40 -70.77, 82.78 87.32 2.10 16
11 12/02/2014 19:08:04 69.97,-110.70 91.88 12/02/2014 19:09:11 69.98,-108.67 91.90 77.42 67
12 12/05/2014 09:45:30 70.85, 31.16 93.12 12/05/2014 09:44:49 70.84, 31.12 93.11 1.62 41
13 12/05/2014 10:35:00 -70.74,-161.36
